Global Cebu F.C. - Philippines Football League
73
sp_team-template-default,single,single-sp_team,postid-73,sportspress,sportspress-page,sp-show-image,ajax_fade,page_not_loaded,boxed,,qode-title-hidden,qode_grid_1200,footer_responsive_adv,hide_top_bar_on_mobile_header,qode-theme-ver-11.1,qode-theme-philippines football league,wpb-js-composer js-comp-ver-5.1.1,vc_responsive

Global Cebu F.C.

Name: Global Cebu FC
City/Province: Cebu City
Venue: Cebu City Sports Centre, Cebu City
Head Coach: Marjo Allado

NameJob
Marjo AlladoHead Coach
Tomasito Glenn RamosAssistant Coach
Stefano MarsellaGoalkeeping Coach
Nico Luis BanezPhysiotherapist
Erelson CabatbatMedia Officer
Khariza Mae CatameoPhysiotherapist
Kevin ConejosEquipment Manager
Anna Liza DemegilloSenior Physiotherapist
Yu HoshideTrainer
Anna Katrina LiscanoAssistant Manager
Mark Anthony MalcampoMedia and Marketing Manager
Josef Mari MalinayEVP/COO/Team Manager
Lance David MauleonTrainer
Joebert ReamonAssistant Kitman
DateMatchTime/Results
2017-05-07 16:00:14May 7, 2017 JPV MARIKINA FC vs GLOBAL CEBU FC1 - 2
2017-05-21 16:00:50May 21, 2017 STALLION LAGUNA FC vs GLOBAL CEBU FC1 - 1
2017-05-24 19:00:27May 24, 2017 GLOBAL CEBU FC vs KAYA FC-MAKATI3 - 1
2017-06-03 16:00:15June 3, 2017 CERES NEGROS FC vs GLOBAL CEBU FC1 - 0
2017-06-18 19:00:03June 18, 2017 ILOCOS UNITED FC vs GLOBAL CEBU FC0 - 3
2017-06-25 19:00:59June 25, 2017 GLOBAL CEBU FC vs JPV MARIKINA FC1 - 2
2017-06-28 16:00:35June 28, 2017 DAVAO AGUILAS FC vs GLOBAL CEBU FC1 - 2
2017-07-02 16:00:08July 2, 2017 KAYA FC-MAKATI vs GLOBAL CEBU FC2 - 2
2017-07-05 19:00:20July 5, 2017 GLOBAL CEBU FC vs CERES NEGROS FC1 - 0
2017-07-09 19:00:17July 9, 2017 GLOBAL CEBU FC vs STALLION LAGUNA FC3 - 0
2017-07-15 19:00:17July 15, 2017 GLOBAL CEBU FC vs DAVAO AGUILAS FC0 - 0
2017-07-22 16:00:54July 22, 2017 FC MERALCO MANILA vs GLOBAL CEBU FC2 - 2
2017-08-02 16:00:50August 2, 2017 FC MERALCO MANILA vs GLOBAL CEBU FC1 - 2
2017-08-05 16:00:09August 5, 2017 GLOBAL CEBU FC vs ILOCOS UNITED FC2 - 1
2017-08-13 16:00:20August 13, 2017 JPV MARIKINA FC vs GLOBAL CEBU FC5 - 2
2017-08-19 19:00:44August 19, 2017 GLOBAL CEBU FC vs KAYA FC-MAKATI0 - 0
2017-08-25 19:00:52August 25, 2017 STALLION LAGUNA FC vs GLOBAL CEBU FC2 - 1
2017-09-09 16:00:45September 9, 2017 DAVAO AGUILAS FC vs GLOBAL CEBU FC2 - 2
2017-09-13 19:00:50September 13, 2017 GLOBAL CEBU FC vs DAVAO AGUILAS FC3 - 1
2017-09-16 16:00:30September 16, 2017 GLOBAL CEBU FC vs FC MERALCO MANILA0 - 0
2017-09-24 16:00:09September 24, 2017 CERES NEGROS FC vs GLOBAL CEBU FC1 - 0
2017-10-15 19:00:21October 15, 2017 GLOBAL CEBU FC vs JPV MARIKINA FC2 - 1
2017-10-21 16:00:07October 21, 2017 KAYA FC-MAKATI vs GLOBAL CEBU FC2 - 0
2017-10-29 19:00:06October 29, 2017 GLOBAL CEBU FC vs ILOCOS UNITED FC3 - 2
2017-11-02 16:00:55November 2, 2017 GLOBAL CEBU FC vs STALLION LAGUNA FC4 - 3
2017-11-15 16:00:32November 15, 2017 ILOCOS UNITED FC vs GLOBAL CEBU FC3 - 3
2017-11-19 19:00:51November 19, 2017 GLOBAL CEBU FC vs FC MERALCO MANILA1 - 2
2017-11-28 19:00:59November 28, 2017 GLOBAL CEBU FC vs CERES NEGROS FC2 - 0
2018-03-03 19:00:00March 3, 2018 JPV Marikina F.C. vs Global Cebu F.C.2 - 1
2018-04-04 16:00:00April 4, 2018 Global Cebu F.C. vs Stallion Laguna F.C.1 - 2

Tweets

Tweets